Bergplaas, South Africa

8:38 AM SAST on May 23, 2017 (GMT +0200)
Bergplaas

Weather History for 68828 - April, 2013

Change the Weather History Date:

Friday, April 19, 2013

  Actual Average Record
Temperature  
Mean Temperature 54 °F -  
Max Temperature 63 °F 69 °F - ()
Min Temperature 45 °F 50 °F - ()
Degree Days  
Heating Degree Days 11    
Growing Degree Days 4 (Base 50)    
Moisture  
Dew Point 48 °F    
Average Humidity 77    
Maximum Humidity 94    
Minimum Humidity 46    
Precipitation  
Precipitation 0.00 in - - ()
Sea Level Pressure  
Sea Level Pressure 30.24 in    
Wind  
Wind Speed 4 mph ()    
Max Wind Speed 10 mph    
Max Gust Speed -    
Visibility 7.6 miles    
Events      
T = Trace of Precipitation, MM = Missing Value Source: Averaged Metar Reports

Daily Weather History Graph

Daily Weather History Graph

Search for Another Location

Airport or City:

Trip Planner

Search our weather history database for the weather conditions in past years. The results will help you decide how hot, cold, wet, or windy it might be!

Date:

Astronomy

Apr. 19, 2013 Rise Set
Actual Time 6:56 AM SAST 6:02 PM SAST
Civil Twilight 6:30 AM SAST 6:27 PM SAST
Nautical Twilight 6:01 AM SAST 6:57 PM SAST
Astronomical Twilight 5:32 AM SAST 7:26 PM SAST
Moon 2:00 PM SAST (4/19) 12:19 AM SAST (4/19)
Length of Visible Light 11h 57m
Length of Day
11h 06m
First Quarter, 59% of the Moon is Illuminated
Apr 19
First Quarter
Apr 25
Full
May 2
Last Quarter
May 10
New
May 18
First Quarter

Hourly Weather History & Observations

Time (SAST) Temp. Windchill Dew Point Humidity Pressure Visibility Wind Dir Wind Speed Gust Speed Precip Events Conditions
12:00 AM 48.2 °F - 44.6 °F 87% 30.21 in - NNW 3.5 mph - N/A   Clear
1:00 AM 48.2 °F - 42.8 °F 82% 30.21 in 6.2 mi NNW 3.5 mph - N/A   Mostly Cloudy
2:00 AM 49 °F - 44 °F 77% 30.25 in 31 mi NNW 2.3 mph - -  
2:00 AM 50.0 °F - 44.6 °F 82% 30.21 in 6.2 mi NNW 2.3 mph - N/A   Mostly Cloudy
3:00 AM 50.0 °F - 46.4 °F 87% 30.21 in 6.2 mi NW 4.6 mph - N/A   Mostly Cloudy
4:00 AM 50.0 °F - 44.6 °F 82% 30.21 in 6.2 mi NW 5.8 mph - N/A   Partly Cloudy
5:00 AM 48 °F - 45 °F 84% 30.23 in 12 mi NW 4.6 mph - -  
5:00 AM 48.2 °F - 44.6 °F 87% 30.21 in - NW 5.8 mph - N/A   Clear
6:00 AM 48.2 °F - 44.6 °F 87% 30.21 in - North 3.5 mph - N/A   Clear
7:00 AM 46.4 °F 45.2 °F 42.8 °F 87% 30.24 in 6.2 mi NW 3.5 mph - N/A   Partly Cloudy
8:00 AM 50 °F - 44 °F 75% 30.26 in 12 mi NNW 3.5 mph - -   Scattered Clouds
8:00 AM 50.0 °F - 44.6 °F 82% 30.24 in 6.2 mi North 3.5 mph - N/A   Partly Cloudy
9:00 AM 57.2 °F - 48.2 °F 72% 30.27 in 6.2 mi NNW 4.6 mph - N/A   Partly Cloudy
10:00 AM 59.0 °F - 46.4 °F 63% 30.27 in 6.2 mi Variable 2.3 mph - N/A   Scattered Clouds
11:00 AM 63 °F - 47 °F 46% 30.27 in 12 mi 2.3 mph - -   Partly Cloudy
11:00 AM 62.6 °F - 48.2 °F 59% 30.27 in 6.2 mi Variable 3.5 mph - N/A   Scattered Clouds
12:00 PM 59.0 °F - 48.2 °F 67% 30.24 in 6.2 mi SSW 6.9 mph - N/A   Mostly Cloudy
1:00 PM 60.8 °F - 50.0 °F 68% 30.24 in 6.2 mi SSW 8.1 mph - N/A   Scattered Clouds
2:00 PM 62 °F - 49 °F 53% 30.25 in 12 mi South 8.1 mph - -   Partly Cloudy
2:00 PM 60.8 °F - 48.2 °F 63% 30.24 in 6.2 mi South 8.1 mph - N/A   Scattered Clouds
3:00 PM 60.8 °F - 50.0 °F 68% 30.24 in 6.2 mi SSE 9.2 mph - N/A   Scattered Clouds
4:00 PM 60.8 °F - 50.0 °F 68% 30.21 in 6.2 mi SE 9.2 mph - N/A   Scattered Clouds
5:00 PM 59 °F - 51 °F 67% 30.25 in 12 mi ESE 10.4 mph - -   Partly Cloudy
5:00 PM 59.0 °F - 50.0 °F 72% 30.24 in 6.2 mi SE 10.4 mph - N/A   Scattered Clouds
6:00 PM 57.2 °F - 51.8 °F 82% 30.24 in 6.2 mi East 6.9 mph - N/A   Scattered Clouds
7:00 PM 55.4 °F - 51.8 °F 88% 30.27 in 6.2 mi ESE 4.6 mph - N/A   Partly Cloudy
8:00 PM 54 °F - 51 °F 86% 30.27 in 12 mi NE 2.3 mph - -   Partly Cloudy
8:00 PM 53.6 °F - 51.8 °F 94% 30.27 in 6.2 mi ENE 4.6 mph - N/A   Partly Cloudy
9:00 PM 53.6 °F - 50.0 °F 88% 30.27 in 6.2 mi ESE 3.5 mph - N/A   Partly Cloudy
10:00 PM 51.8 °F - 50.0 °F 94% 30.27 in - ESE 6.9 mph - N/A   Clear
11:00 PM 51.8 °F - 48.2 °F 88% 30.27 in - SE 5.8 mph - N/A   Clear